Location: Bells
(33.6104°N, 96.4108°W)
Time: 03:54:43
(UTC+00:00)

Daily predictions for brighter satellites

Satellite Brightness Start Highest point End
(mag) Time Altitude Azimuth Time Altitude Azimuth Time Altitude Azimuth
CZ-3B R/B 4.1 01:17:15 10° WNW 01:21:17 47° SW 01:33:19 10° SSE
CZ-4B R/B 3.8 01:17:37 10° S 01:22:36 69° WSW 01:27:28 10° NNW
SPOT 1/Viking Rocket 4.4 01:19:04 10° SE 01:23:33 30° ENE 01:28:02 10° N
APEX 2.5 01:21:18 10° NNW 01:24:30 71° ENE 01:27:26 10° SSE
CZ-4B R/B 4.1 01:24:03 10° SE 01:28:57 31° ENE 01:33:49 10° N
Cosmos 1674 Rocket 3.6 01:27:00 10° N 01:31:25 61° E 01:35:48 10° SSE
Cosmos 1825 3.3 01:28:57 10° NNE 01:31:39 21° ENE 01:34:20 10° SE
USA 234 4.0 01:28:42 10° ESE 01:34:40 40° NE 01:40:39 10° NNW
NOSS 3-1 (C) 3.4 01:31:04 10° S 01:35:15 35° ESE 01:39:55 10° NE
Meteor 2-11 Rocket 4.4 01:30:30 10° N 01:36:36 77° E 01:42:39 10° S
Hubble Space Telescope 1.5 01:35:01 10° WSW 01:38:40 35° S 01:41:39 14° ESE
Cosmos 2082 Rocket 3.3 01:33:37 10° NNW 01:39:04 47° WSW 01:44:29 10° S
Resurs 1-3 3.6 01:37:38 10° SSE 01:41:53 59° ENE 01:46:10 10° N
[s.n.70599] 2.2 01:42:02 10° WNW 01:44:34 88° NNE 01:46:07 20° ESE
IKONOS-2 4.4 01:45:14 10° NNE 01:49:27 87° ESE 01:53:39 10° SSW
Cosmos 2366 rocket 4.5 01:44:41 10° N 01:50:40 41° E 01:56:35 10° SSE
Okean O Rocket 2.6 01:49:28 16° ESE 01:51:56 27° ENE 01:55:35 10° NNE
Cosmos 1025 Rocket 3.6 01:48:13 10° NNE 01:52:16 36° E 01:55:30 15° SE
ATLAS 3B R/B 3.3 01:50:29 10° S 01:56:28 34° ESE 02:02:49 10° NE
Resurs 01 Rocket 2.4 01:55:01 18° SE 01:57:33 32° ENE 02:01:28 10° N
YAOGAN 1 4.5 01:54:11 10° SSW 01:57:58 31° W 02:01:47 10° NW
Cosmos 2218 Rocket 4.3 01:51:54 10° N 01:58:01 46° E 02:03:55 11° SSE
CARTOSAT-1 4.4 01:58:16 21° ESE 02:00:11 30° ENE 02:03:55 10° NNE
Cosmos 1346 Rocket 2.6 01:56:36 10° S 02:00:25 83° E 02:04:14 10° N
SJ-6B 3.0 01:58:16 10° S 02:02:10 74° W 02:06:08 10° NNW
USA 281 4.0 01:59:35 18° ESE 02:03:29 33° ENE 02:09:11 10° N
Cosmos 1975 Rocket 4.1 02:00:43 10° NNE 02:04:20 25° ENE 02:05:11 24° E
Cosmos 1302 Rocket 4.2 02:00:04 10° SSW 02:05:20 77° WNW 02:10:36 10° NNE
USA 129 4.3 02:04:55 10° NNE 02:05:09 12° NNE 02:05:09 12° NNE
Cosmos 1328 3.7 02:05:58 10° N 02:09:41 58° E 02:11:47 24° SSE
OAO 3 Rocket 3.3 02:05:40 10° W 02:10:33 74° N 02:13:30 24° E
Cosmos 1782 Rocket 3.5 02:09:39 10° S 02:13:58 89° ESE 02:18:22 10° N
Meteor 1-21 Rocket 4.3 02:09:38 10° N 02:15:32 64° E 02:20:11 16° SSE
DELTA 2 R/B (1) 3.5 02:11:52 10° WNW 02:17:31 89° NNE 02:20:22 30° ESE
USA 186 1.6 02:16:16 31° S 02:17:38 88° W 02:20:42 10° NNW
Cosmos 1892 3.1 02:14:45 10° NNW 02:18:15 56° W 02:21:37 11° S
CZ-4 R/B 2.4 02:18:39 10° S 02:22:28 44° W 02:26:14 10° NNW
ATLAS 5 CENTAUR R/B 0.6 02:19:21 10° SSW 02:22:39 76° ESE 02:26:03 10° NNE
Delta 2 Rocket 4.5 02:17:51 10° WSW 02:24:19 44° S 02:26:51 30° SE
SPOT 5 4.4 02:24:44 22° ENE 02:25:00 22° ENE 02:29:00 10° NNE
Cosmos 1455 3.3 02:23:16 10° SSW 02:26:38 40° W 02:30:02 10° N
Cosmos 864 Rocket 4.4 02:22:03 10° N 02:28:18 85° E 02:34:03 13° S
Cosmos 968 Rocket 3.6 02:23:31 10° NNW 02:28:37 71° WSW 02:32:17 19° S
Feng Yun 1-1 Rocket 4.2 02:28:09 16° S 02:32:38 81° WSW 02:38:14 10° NNW
CSL-04 Debris 4.2 02:34:11 19° S 02:38:06 78° WSW 02:43:34 10° NNW
Cosmos 1300 Rocket 4.2 02:36:10 10° SSW 02:40:25 55° W 02:44:44 10° N
CSL-04 Rocket 3.9 02:45:00 22° S 02:48:35 68° WSW 02:54:05 10° NNW
In-Cosmos 22 Rocket 4.0 02:47:51 10° N 02:53:19 84° E 02:54:49 50° SSE
SJ 16-02 1.5 02:49:15 10° NNW 02:53:33 68° WSW 02:54:06 60° SSW
OAO 1 Rocket 4.4 02:48:49 10° W 02:54:09 79° N 02:55:16 56° ENE
CZ-4C R/B 3.9 02:53:48 10° N 02:56:35 46° NW 02:56:35 46° NW
NOSS 3-1 (A) 2.8 02:57:23 10° SSW 03:02:05 86° WNW 03:07:28 10° NNE
Cosmos 2098 Rocket 4.3 02:57:30 10° SSW 03:03:04 50° W 03:07:41 10° N
MetOp-B 4.3 03:05:02 54° ENE 03:05:02 54° ENE 03:09:53 10° N
Okean-O 2.7 03:06:02 72° NNW 03:06:02 72° NNW 03:10:01 10° NNW
Terra 3.6 03:09:26 20° NNE 03:09:26 20° NNE 03:11:18 10° NNE
Atlas Centaur 2 4.1 03:05:09 10° SW 03:05:22 11° SW 03:05:22 11° SW
USA 234 3.7 03:15:42 42° S 03:17:29 52° SW 03:23:50 10° NW
Hubble Space Telescope 3.0 03:15:22 10° WSW 03:16:32 17° WSW 03:16:32 17° WSW
Cosmos 1833 4.3 03:13:58 10° NNW 03:19:33 67° WSW 03:19:59 64° SW
IRS-1A Rocket 4.4 03:20:51 66° NE 03:20:51 66° NE 03:26:19 10° N
Ariane Rocket 4.5 03:27:13 26° NNE 03:27:13 26° NNE 03:29:44 10° N
Okean O Rocket 3.7 03:26:49 18° WSW 03:28:08 21° W 03:31:24 10° NW
Milstar 3 4.4 03:17:31 10° WSW 03:28:17 70° S 03:37:38 37° E
Resurs 01 Rocket 4.0 03:32:30 15° WSW 03:34:00 18° W 03:36:59 10° NW
ATLAS 3B R/B 3.8 03:40:24 10° WSW 03:46:56 43° NW 03:53:58 10° NNE
USA 281 4.1 03:46:26 37° SW 03:47:44 41° WSW 03:53:52 10° NW
Centaur D-1AR AC-36 4.1 03:47:30 10° SW 04:13:23 21° ESE 04:43:16 10° E
Centaur D-1AR AC-36 4.1 03:47:30 10° SW 04:13:23 21° ESE 04:43:15 10° E
SPOT 5 4.5 04:03:53 35° WNW 04:03:53 35° WNW 04:07:39 10° NNW
CZ-4C R/B 4.4 04:31:17 10° N 04:36:24 27° NE 04:36:24 27° NE
Cosmos 2297 Rocket 4.3 04:39:31 10° NNW 04:41:24 22° NNW 04:41:24 22° NNW
CENTAUR R/B 4.5 05:09:05 10° NNW 05:15:26 31° NE 05:15:26 31° NE
Cosmos 2237 Rocket 4.4 08:16:42 20° ENE 08:16:42 20° ENE 08:19:14 10° NE
Resurs 1-4 Rocket 4.1 08:28:15 10° N 08:30:10 23° N 08:30:10 23° N
H-2A R/B 4.3 08:46:24 37° SSE 08:46:24 37° SSE 09:05:37 10° ESE
Cosmos 2278 Rocket 4.2 08:48:08 10° N 08:52:48 25° ENE 08:57:25 10° ESE
Cosmos 2219 Rocket 4.2 08:55:50 18° NNW 08:55:50 18° NNW 08:57:45 10° N
SL-16 R/B 4.4 09:03:21 13° SE 09:05:36 17° E 09:09:05 10° ENE
CZ-2C R/B 4.1 09:08:55 10° NE 09:13:20 28° E 09:14:38 25° ESE
BREEZE-M DEB (TANK) 4.1 09:13:45 67° WSW 09:14:59 83° NW 09:41:57 10° NE
Meteor 1-19 Rocket 4.3 09:20:01 77° NNE 09:20:01 77° NNE 09:25:35 10° N
ADEOS II 3.5 09:14:56 10° N 09:17:38 28° NNW 09:17:38 28° NNW
Cosmos 923 Rocket 4.3 09:23:19 62° NNE 09:23:19 62° NNE 09:27:43 10° NNE
Cosmos 1092 Rocket 3.9 09:24:59 76° SSE 09:25:24 81° E 09:31:33 10° N
Cosmos 2026 Rocket 3.8 09:32:11 74° SSW 09:32:50 87° W 09:39:12 10° N
CZ-2D R/B 4.1 09:29:03 10° NNW 09:30:50 17° NW 09:30:50 17° NW
Envisat 3.3 09:29:20 10° NNE 09:34:21 61° E 09:34:51 58° SE
BREEZE-M DEB (TANK) 3.5 09:34:04 60° WNW 09:34:25 62° NW 09:37:55 10° NE
SL-16 R/B 2.6 09:36:56 56° WNW 09:36:56 56° WNW 09:42:14 10° NNW
EO 1 Delta rocket 4.0 09:37:50 10° N 09:41:50 65° NNW 09:41:50 65° NNW
Meteor 1-27 Rocket 4.1 09:46:39 49° WNW 09:46:39 49° WNW 09:51:45 10° N
CZ-4 R/B 3.8 09:45:39 10° N 09:49:59 66° NW 09:49:59 66° NW
Meteor 2-4 Rocket 3.8 09:48:37 40° SSE 09:50:32 69° E 09:55:58 10° NNE
COSMOS 2428 4.5 09:52:37 17° NW 09:52:37 17° NW 09:55:41 10° NNW
Cosmos 1943 Rocket 3.3 09:46:42 10° N 09:52:07 45° ENE 09:57:30 10° SE
Thor Agena Rocket 3.7 09:47:07 10° NNE 09:52:08 66° ESE 09:53:50 41° S
YAOGAN 6 3.6 09:50:40 10° NNE 09:53:02 40° NE 09:53:02 40° NE
H-2A R/B 4.4 09:52:08 10° NE 09:55:51 20° E 09:59:37 10° SE
Cosmos 2237 Rocket 2.7 09:58:31 40° WNW 09:58:38 40° WNW 10:03:57 10° N
Cosmos 1980 4.4 09:59:54 36° WNW 09:59:57 36° WNW 10:05:09 10° N
NOAA 11 4.1 09:54:51 10° NNE 10:00:19 88° W 10:02:18 41° SSW
Cosmos 2112 Rocket 3.9 10:01:07 58° SW 10:02:01 70° WNW 10:07:21 10° NNE
Cosmos 1340 Rocket 3.1 10:04:13 50° NNW 10:04:13 50° NNW 10:07:16 10° N
ALOS 3.8 09:59:50 10° NNW 10:02:16 22° NW 10:02:16 22° NW
Cosmos 1867 3.5 10:00:35 10° NW 10:05:57 58° WSW 10:11:15 10° SSE
Cosmos 1328 Rocket 3.4 10:08:29 51° S 10:09:35 87° W 10:14:02 10° N
ATLAS 2AS CENTAUR R/B 2.8 10:07:19 33° SSW 10:11:05 84° WNW 10:18:24 10° NNE
Cosmos 1805 3.0 10:09:26 10° N 10:13:08 90° E 10:13:52 56° S
Aureole 2 4.5 10:09:27 10° NNW 10:13:17 71° WNW 10:13:17 71° WNW
Delta 128 4.1 10:17:14 38° SSW 10:17:26 38° S 10:21:39 10° ESE
Chandra Rocket (1) 2.5 10:18:55 33° S 10:19:11 33° SSE 10:24:13 10° E
IRS-1D 3.5 10:18:23 10° N 10:23:26 64° WNW 10:26:05 28° SSW
Cosmos 1633 Rocket 3.1 10:19:26 10° N 10:23:46 80° E 10:28:07 10° S
CSL-04 DEB 4.3 10:19:41 10° N 10:23:51 76° WNW 10:25:34 34° SSW
Cosmos 2266 Rocket 4.2 10:22:17 10° S 10:28:21 69° E 10:34:21 10° NNE
Cosmos 1680 Rocket 4.3 10:28:08 29° W 10:29:13 31° WNW 10:33:56 10° N
Iridium 51 3.7 10:33:29 25° S 10:35:20 77° W 10:38:40 10° N
Cosmos 2278 Rocket 2.6 10:31:43 10° NW 10:36:53 37° WSW 10:42:02 10° S
NOSS 2-2 (C) 4.3 10:32:47 10° NNW 10:37:59 80° WSW 10:45:26 10° SSE
Cosmos 1461 3.0 10:38:30 10° NW 10:42:05 40° WSW 10:45:39 10° S
USA 308 3.0 10:41:22 31° W 10:42:42 46° NW 10:46:28 10° NNE
Cosmos 1420 Rocket 3.9 10:38:06 10° NNW 10:43:20 70° WSW 10:48:34 10° S
Cosmos 1674 3.0 10:40:05 10° S 10:43:26 56° E 10:46:48 10° NNE
Delta 2 Rocket 4.5 10:40:59 21° SSW 10:43:49 41° SSE 10:48:14 10° E
Cosmos 494 Rocket 3.9 10:42:24 16° SSW 10:46:31 66° WNW 10:51:39 10° N
ATLAS 5 CENTAUR R/B 3.3 10:42:33 19° WSW 10:46:44 25° SSW 10:50:39 10° SSE
Cosmos 2056 Rocket 3.5 10:41:57 10° NNW 10:47:21 77° WSW 10:52:45 10° S
SL-16 R/B 2.4 10:45:14 19° SW 10:49:11 52° WNW 10:54:42 10° N
Sakura Rocket 4.2 10:50:19 17° SSW 10:50:45 17° SSW 10:53:18 10° SSE
CZ-2C R/B 3.5 10:46:56 10° NNW 10:51:19 29° WNW 10:53:57 19° WSW
Cosmos 1626 2.8 10:51:53 25° WSW 10:52:32 27° W 10:55:25 10° NNW
Cosmos 1766 3.1 10:49:30 10° N 10:53:11 84° E 10:56:52 10° S
Cosmos 1939 Rocket 3.5 10:49:57 10° NNE 10:53:38 53° E 10:57:20 10° S
Cosmos 921 Rocket 4.2 10:53:25 20° W 10:54:47 23° WNW 10:58:15 10° NNW
Cosmos 1340 3.0 10:52:13 10° NNW 10:55:19 33° W 10:58:26 10° SSW
KORONAS-FOTON 3.9 10:51:54 10° S 10:55:33 71° E 10:59:11 10° N
Cosmos 1553 Rocket 4.2 10:51:43 10° NNW 10:57:37 46° W 11:03:25 10° SSW
Cosmos 1515 Rocket 3.8 10:55:05 10° SSW 10:59:24 51° W 11:03:44 10° N
Cosmos 1624 Rocket 4.0 10:54:32 10° NNW 10:59:39 58° WSW 11:04:43 10° S
Cosmos 1975 3.8 10:56:48 10° NW 10:59:58 24° W 11:02:30 13° SW
ASTRO E2 3.4 11:00:59 16° SW 11:03:16 35° SSE 11:06:32 10° E
Cosmos 1484 Rocket 2.8 11:05:01 10° N 11:08:30 48° WNW 11:11:56 10° SSW
Cosmos 1470 Rocket 3.8 11:05:43 10° NNW 11:09:56 46° W 11:14:10 10° SSW
CBERS-1 4.2 11:08:30 10° N 11:13:27 53° WNW 11:18:22 10° SSW
ATLAS 5 CENTAUR R/B 3.4 11:08:31 10° NNW 11:13:46 50° ENE 11:20:06 10° SE
H-2A R/B 2.3 11:11:59 10° N 11:15:20 87° WNW 11:18:38 10° SSW
CZ-3 R/B 3.3 11:01:21 11° WSW 11:20:44 49° S 11:27:04 10° E
In-Cosmos 22 4.3 11:18:18 10° S 11:23:38 78° E 11:29:08 10° N
ATLAS 3B R/B 4.4 11:16:33 10° NNW 11:23:53 42° NE 11:31:03 10° ESE
YAOGAN 11 4.2 11:23:51 10° S 11:28:15 63° WSW 11:32:44 10° NNW
Cosmos 1842 4.0 11:26:46 10° SW 11:30:02 29° W 11:33:19 10° NNW
USA 290 2.2 11:27:43 10° NNW 11:30:43 50° WSW 11:33:42 10° S
COSMO-SKYMED 1 3.6 11:27:02 10° SSE 11:31:14 52° ENE 11:35:27 10° N
IRS-1C 4.2 11:28:22 10° NNE 11:33:42 85° WNW 11:39:01 10° SSW
BlueWalker 3 1.9 11:30:04 10° NW 11:33:51 68° SW 11:37:37 10° SE
H-2A R/B 2.6 11:30:40 10° N 11:35:15 37° WNW 11:39:56 10° SW
Cosmos 1943 Rocket 3.4 11:31:25 10° NW 11:35:26 20° W 11:39:27 10° SW
